Back to catalog

COSMOS 1275 DEB

AlivePO
NORAD 12712·DEBRIS·🇷🇺 Russia

Launched Jun 4, 1981 from Plesetsk Cosmodrome

Loading…

Next Passes (next 24 hours)

TLE

FreshSource: Space-Track

Epoch: Sep 14, 2026, 10:14 UTC

1 12712U 81053BG  26257.42660431  .00000830  00000-0  65331-3 0  9990
2 12712  82.9808 249.2789 0067994 197.0178 316.8723 13.89607867263847

Track COSMOS 1275 DEB in real time with AllMySat

Download on the App Store